Dewpoint
-6 -6 -6 -6 -3 1 4 5 7 8 8 7 6 5 6 6 6 4 4 4 3 0 -1 -2 -4 -5 -6 -8 -10 -11 -11 -12 -12 -11 -11 -11 -12 -11 -7 -4 -1 -0 -2
-4 -5 -5 -6 -4 -0 4 6 6 7 7 7 6 6 6 6 7 7 5 4 3 1 -0 -2 -3 -4 -6 -7 -9 -10 -10 -11 -10 -9 -8 -9 -6 -7 -5 -2 0 1 -1
-3 -3 -4 -5 -3 1 3 6 6 6 6 6 6 7 8 8 8 8 7 5 3 2 1 -1 -2 -4 -5 -6 -8 -9 -9 -8 -8 -7 -6 -7 -5 -5 -3 -1 1 2 0
-3 -2 -2 -4 -3 2 5 6 6 6 6 6 6 6 7 7 6 7 7 6 4 3 3 1 -1 -3 -4 -5 -6 -7 -6 -6 -6 -6 -6 -6 -5 -5 -6 -5 -3 -1 1
-2 -2 -2 -2 -2 2 5 5 5 6 7 7 7 7 7 7 9 9 8 7 6 5 3 2 1 -1 -3 -3 -4 -5 -5 -6 -6 -6 -6 -5 -5 -4 -3 -5 -6 -5 -3
-0 0 1 -0 -1 -1 -2 -2 -2 -1 3 8 9 8 8 8 9 8 7 7 7 6 4 2 1 0 -1 -2 -2 -3 -4 -5 -5 -5 -6 -5 -4 -4 -4 -1 -1 -0 -3
-1 -1 -1 -1 -1 -1 0 0 1 2 3 6 9 10 10 10 9 9 8 8 8 7 6 4 2 1 0 -1 -1 -1 -3 -4 -5 -5 -5 -4 -5 -4 -3 -2 -1 -0 -1
0 -0 -1 -1 -1 -1 -1 1 4 6 7 8 9 10 9 9 8 8 8 8 7 7 7 6 5 3 1 0 -0 -0 -2 -4 -5 -5 -4 -4 -3 -2 -2 -1 -1 0 0
-2 -2 -1 -1 -0 0 -0 -1 -2 -2 1 4 5 6 7 8 8 7 6 5 6 7 7 7 6 5 2 1 1 1 -1 -3 -4 -5 -4 -4 -2 -1 -2 -1 -1 -0 1
-3 -4 -4 -4 -4 -3 -2 -1 -1 -0 -0 -1 -1 -2 -2 -0 2 4 5 6 7 7 7 7 7 6 4 2 1 2 -1 -2 -3 -4 -3 -2 -1 -2 0 0 -0 -0 1
-6 -7 -8 -9 -8 -7 -6 -6 -5 -4 -2 -1 -1 -2 -2 -1 1 0 -1 1 6 7 7 6 6 6 6 4 3 2 0 -1 -3 -3 -2 0 1 -1 1 1 0 -0 0
-7 -8 -11 -13 -15 -15 -15 -14 -12 -10 -8 -7 -4 -1 -1 -2 -1 -0 1 2 3 5 6 6 6 6 6 5 4 3 1 -1 -3 -3 -0 1 -1 0 0 0 1 1 1
-11 -11 -14 -16 -18 -18 -19 -20 -20 -20 -19 -19 -14 -9 -4 -1 -0 -0 1 2 3 4 5 5 5 5 5 6 5 4 2 0 -1 0 0 -0 2 2 0 -0 0 1 1
-12 -14 -16 -17 -18 -19 -20 -20 -20 -20 -21 -21 -21 -21 -18 -11 -4 -0 1 3 4 4 4 5 5 5 6 6 5 4 3 1 1 1 1 2 2 1 -0 -0 -1 0 1
-10 -9 -9 -9 -9 -10 -11 -12 -13 -13 -14 -15 -16 -16 -17 -18 -17 -12 -2 1 3 5 5 5 5 5 5 5 5 4 4 3 2 2 2 2 1 0 -1 -0 0 0 -1
-11 -11 -11 -12 -13 -15 -16 -16 -15 -14 -14 -14 -14 -14 -14 -14 -14 -14 -15 -12 0 2 4 4 4 5 5 5 4 3 3 2 2 2 2 0 0 -0 -0 -0 -0 -2 -2
-12 -13 -14 -15 -15 -15 -16 -17 -17 -17 -18 -17 -17 -17 -17 -16 -15 -14 -13 -11 -12 -4 2 3 3 4 4 4 4 3 2 2 2 1 0 1 -0 -1 -1 -1 -2 -3 -2
-12 -14 -15 -15 -14 -14 -16 -17 -17 -18 -19 -19 -19 -20 -19 -18 -17 -16 -14 -13 -11 -5 -1 1 2 2 3 3 3 3 3 2 1 0 -0 -0 -2 -3 -3 -2 -3 -2 -2
-12 -13 -13 -13 -14 -14 -16 -16 -17 -17 -18 -18 -19 -19 -18 -18 -17 -16 -15 -14 -12 -10 -4 1 1 1 2 2 3 2 1 0 0 -0 -0 -2 -3 -3 -3 -3 -3 -3 -3
-11 -11 -11 -12 -13 -14 -14 -15 -15 -15 -16 -16 -16 -16 -14 -14 -13 -13 -13 -13 -11 -8 -5 -1 -0 1 2 2 2 1 0 -0 -0 -0 -1 -3 -3 -3 -3 -3 -3 -3 -3
-10 -10 -11 -13 -13 -13 -14 -14 -14 -14 -15 -15 -14 -14 -13 -12 -12 -12 -7 -6 -6 -3 -3 -2 -1 1 2 1 0 0 -0 -0 -1 -1 -2 -3 -3 -3 -3 -3 -4 -4 -3
-10 -11 -12 -13 -13 -13 -13 -14 -14 -14 -14 -13 -13 -13 -12 -11 -10 -7 -6 -5 -4 -3 -3 -2 -1 0 1 -0 -0 -0 -0 -0 -1 -2 -2 -3 -3 -3 -3 -4 -4 -4 -4
-10 -12 -12 -12 -12 -13 -13 -13 -13 -13 -13 -13 -13 -13 -12 -11 -9 -5 -4 -4 -4 -4 -2 -2 -1 -0 0 -0 -0 -0 -1 -1 -1 -2 -3 -3 -3 -4 -4 -4 -4 -4 -4
-11 -11 -12 -12 -13 -13 -13 -14 -15 -14 -13 -13 -14 -13 -12 -11 -8 -5 -5 -4 -4 -3 -3 -2 -1 -1 -1 -0 -1 -1 -1 -2 -2 -3 -4 -4 -4 -4 -4 -4 -4 -4 -4
-11 -11 -12 -12 -13 -13 -14 -15 -17 -17 -17 -15 -14 -13 -10 -8 -6 -5 -5 -5 -4 -3 -3 -2 -1 -1 -1 -1 -1 -1 -1 -2 -2 -3 -4 -4 -4 -4 -4 -4 -4 -5 -5
-11 -12 -12 -13 -13 -14 -15 -17 -20 -22 -22 -20 -15 -11 -9 -7 -6 -5 -5 -4 -4 -3 -2 -2 -2 -2 -1 -1 -1 -1 -1 -2 -2 -3 -4 -5 -4 -4 -4 -5 -5 -5 -5
Wind_Speed
18 18 20 21 24 25 27 24 24 22 20 19 20 22 23 22 21 20 18 16 16 17 17 16 15 14 14 13 12 11 10 9 9 8 8 8 9 9 10 9 8 10 11
13 16 18 22 24 25 27 26 25 24 22 20 17 17 18 20 19 18 18 18 18 18 18 18 17 16 16 14 13 12 11 10 10 9 9 4 6 9 9 10 10 12 12
10 5 10 22 23 22 24 25 25 24 23 20 18 18 18 20 21 22 22 20 19 19 19 19 19 18 17 16 15 14 13 12 11 10 7 4 4 6 9 11 13 13 14
14 14 8 9 17 18 22 23 23 23 23 22 21 20 20 19 21 22 22 21 21 20 21 21 21 20 19 19 17 16 15 14 12 12 11 11 12 6 6 8 12 14 15
20 18 17 13 8 9 12 11 14 18 22 22 21 21 21 20 19 20 22 22 22 21 22 23 23 23 22 21 20 20 18 16 15 13 13 13 13 14 15 18 17 17 16
25 24 22 19 17 12 8 4 4 6 11 18 19 19 21 21 22 23 23 23 24 24 24 24 25 25 25 24 23 22 22 19 18 16 15 15 14 15 16 19 20 19 20
25 23 21 18 13 9 6 4 2 3 5 8 13 17 20 22 24 24 24 26 27 29 27 26 26 27 27 27 26 25 24 22 20 18 17 16 16 15 19 20 21 21 21
26 26 24 20 17 14 10 6 3 3 3 5 9 14 18 21 23 23 24 28 30 30 27 27 27 27 28 29 29 28 27 25 22 20 18 16 16 17 18 21 21 21 21
22 22 20 19 17 15 13 10 5 1 4 8 12 15 18 21 23 23 24 27 28 30 28 28 29 30 31 32 32 31 29 27 24 21 18 16 17 17 23 21 22 20 18
17 18 18 17 15 13 12 9 8 7 6 7 11 15 18 21 24 27 29 28 28 29 30 31 33 33 33 34 35 33 31 29 25 21 18 17 17 26 22 22 21 20 19
15 15 16 15 14 12 11 10 8 7 7 9 11 14 16 19 23 25 28 30 28 30 31 33 33 33 34 36 37 36 33 31 26 22 19 20 30 23 23 20 20 20 19
12 12 13 13 13 14 13 13 12 12 13 13 12 13 16 18 20 20 21 23 27 28 30 32 32 33 35 36 38 38 36 34 30 26 23 26 24 20 21 21 20 20 19
10 10 10 13 14 14 14 13 14 14 14 15 16 16 17 18 20 21 20 20 22 22 26 29 32 32 35 37 39 39 36 33 30 26 25 24 21 26 22 20 19 20 20
8 9 9 11 12 12 13 14 16 17 17 18 18 18 18 20 21 22 21 20 20 21 24 27 30 32 35 38 39 39 35 34 34 27 26 21 23 22 20 20 18 19 19
7 7 8 10 12 14 16 18 20 20 21 22 23 24 24 24 24 24 24 24 22 21 24 27 31 35 36 38 40 39 38 34 26 26 29 25 22 22 21 20 21 21 22
6 7 9 12 14 16 18 19 21 23 24 25 27 28 29 29 29 29 29 29 29 25 24 27 30 31 33 35 35 32 29 31 30 32 25 22 20 21 21 21 22 20 21
6 8 11 14 15 17 19 20 22 23 25 27 29 31 34 35 34 33 32 30 30 31 31 29 32 35 35 36 34 34 35 36 32 26 23 17 20 22 21 20 17 15 15
6 9 12 14 15 17 19 20 21 23 24 26 27 29 32 35 38 38 35 33 32 29 28 31 30 34 34 31 35 31 33 31 22 24 20 17 16 16 16 16 16 17 18
6 9 11 13 16 18 20 20 21 23 24 25 27 29 31 34 36 39 41 37 34 32 30 31 32 32 37 35 29 25 23 21 22 24 15 15 14 13 16 15 12 12 12
6 8 9 12 16 17 19 21 22 24 25 27 29 30 32 33 34 35 36 37 35 34 32 30 32 33 35 25 28 26 23 26 22 14 15 13 12 13 11 10 11 11 13
5 8 11 14 17 19 20 21 23 24 26 28 29 30 29 30 31 32 32 36 34 35 33 28 28 33 34 30 32 28 20 18 18 14 15 12 11 12 10 11 10 10 11
8 11 14 15 17 18 20 21 23 25 26 28 30 31 30 29 31 31 33 34 33 33 30 29 27 29 33 26 24 21 18 17 16 12 11 10 10 11 10 10 10 11 9
12 14 16 17 17 18 19 22 24 26 28 30 31 33 32 29 29 29 34 34 32 27 32 31 33 32 34 30 27 20 26 17 15 12 9 8 10 9 10 11 9 9 7
13 16 17 17 17 18 19 21 25 26 27 30 32 33 33 30 29 27 32 31 28 28 31 34 34 34 35 28 22 24 24 17 18 13 8 9 10 8 11 12 10 7 8
15 15 16 17 18 18 19 21 24 25 28 30 31 34 33 32 31 29 30 27 27 26 32 33 22 29 28 21 27 28 25 15 17 14 11 12 11 11 12 12 10 9 10
14 15 15 17 18 19 20 21 23 25 28 31 32 34 34 33 30 32 30 19 24 24 26 17 18 17 18 22 22 21 17 19 18 14 12 12 11 12 13 12 12 11 12
Wind_Direction
264 254 240 237 230 228 230 231 231 232 231 232 230 230 233 235 240 247 252 250 248 245 246 248 250 252 254 255 252 249 251 259 268 272 276 275 272 266 263 269 286 300 305
280 260 243 232 229 228 228 229 229 233 238 244 251 251 253 250 251 254 255 256 251 249 248 250 252 254 257 257 254 253 257 258 262 274 289 268 263 259 259 267 275 286 294
50 30 227 218 222 227 231 233 234 234 237 246 244 248 246 248 249 250 254 258 256 253 252 252 253 254 256 255 253 252 252 255 260 265 266 282 251 280 265 265 270 274 284
61 59 66 191 210 218 223 231 236 239 241 242 243 252 267 271 271 268 267 266 263 260 257 256 255 255 255 254 253 250 250 252 256 264 267 265 266 284 286 283 278 278 279
64 66 69 85 137 184 208 219 227 232 236 242 247 257 269 279 278 275 268 264 264 262 259 257 256 256 255 254 252 250 248 249 252 260 267 266 264 263 261 278 282 277 276
81 81 81 91 97 110 129 156 223 241 239 238 247 262 273 280 280 283 275 266 266 266 264 261 258 256 253 252 253 251 248 248 253 257 256 257 260 268 264 263 275 279 283
80 82 82 82 87 98 121 156 201 252 245 237 249 264 276 282 285 286 285 277 271 268 268 269 265 261 258 254 251 251 249 250 256 261 262 261 262 262 265 268 273 275 283
76 77 77 80 80 81 88 98 134 191 209 226 246 261 272 280 284 285 282 278 274 271 272 273 272 265 258 253 251 250 248 248 252 255 257 260 267 267 272 272 273 276 279
74 74 73 71 70 69 64 62 67 109 241 246 251 257 267 274 278 281 282 281 276 272 270 271 272 268 261 254 251 250 248 247 249 251 251 257 262 276 280 270 268 270 273
67 65 65 65 61 56 49 38 27 7 338 301 287 282 278 275 276 275 273 275 281 278 271 267 271 269 261 255 252 250 246 245 246 244 242 255 279 284 271 266 263 263 265
70 66 62 60 58 55 48 39 26 6 337 320 306 294 290 284 279 278 274 273 272 272 269 267 267 271 267 258 252 249 244 244 242 235 245 274 283 269 267 264 259 257 265
86 79 67 58 53 49 45 39 30 19 8 356 338 320 310 303 298 291 282 276 270 268 269 268 267 267 268 264 255 250 244 240 235 234 254 276 261 265 273 260 256 254 262
91 78 65 51 43 38 32 26 19 12 5 357 349 340 331 321 315 309 300 288 280 274 272 270 267 269 272 265 257 250 244 243 238 247 255 251 264 273 257 260 257 254 258
86 72 55 40 32 25 17 12 7 1 356 351 347 343 336 330 321 316 309 300 291 280 274 274 270 269 272 267 260 251 239 241 242 243 247 256 268 250 254 253 249 252 258
101 74 51 33 25 18 12 7 4 0 355 351 346 343 338 333 327 319 306 298 291 286 278 274 272 272 268 262 259 249 242 238 238 249 249 262 240 251 254 252 248 252 256
80 44 24 14 7 1 357 354 352 349 346 345 343 340 337 335 333 328 322 313 296 290 285 282 280 277 272 271 264 250 240 234 244 248 237 237 249 254 255 253 252 258 262
42 13 1 357 352 348 343 340 339 336 336 336 336 334 332 330 330 329 327 322 315 304 297 289 283 274 270 265 252 247 236 236 244 231 242 242 253 259 256 247 247 253 263
9 349 342 341 339 335 330 327 326 326 327 326 326 325 324 323 323 322 321 321 316 306 301 292 297 290 271 260 252 238 243 241 223 232 229 247 259 267 258 242 249 257 254
332 328 327 328 326 323 322 321 321 322 323 323 323 322 320 316 314 317 317 318 315 307 296 297 293 289 272 269 245 241 219 233 219 224 227 239 257 268 251 243 242 254 253
312 316 321 323 320 323 325 325 324 325 323 322 321 320 318 316 316 314 312 312 313 306 299 285 286 286 268 246 247 223 234 212 228 213 219 231 255 257 230 231 235 243 252
301 310 318 326 327 324 323 323 323 322 321 320 319 317 319 319 318 315 313 314 312 307 301 289 285 279 247 255 236 234 215 224 205 210 218 234 254 241 211 229 244 252 249
307 315 322 323 324 322 321 321 322 321 321 321 322 322 324 322 321 316 315 316 311 305 301 286 283 273 244 250 224 223 217 208 199 207 215 229 242 222 209 230 244 254 238
317 319 320 321 323 324 327 326 327 325 325 327 328 327 326 323 324 319 315 315 314 307 303 298 287 265 256 225 227 214 210 192 197 199 219 237 234 217 203 220 240 255 235
307 311 315 318 320 321 324 325 327 327 326 327 329 329 329 327 325 325 318 317 314 304 300 301 283 250 235 222 201 200 190 188 192 197 218 243 230 203 204 221 237 253 234
307 311 314 315 316 317 321 324 327 328 329 329 331 334 332 330 329 326 323 321 316 309 307 302 263 230 215 197 193 186 186 207 201 202 214 227 206 193 205 216 227 230 212
301 303 305 307 309 312 316 319 321 323 327 329 333 336 334 333 329 323 323 325 323 314 320 295 262 224 211 204 183 195 193 190 201 205 222 222 202 203 208 213 220 218 211
Height
1504 1505 1508 1510 1513 1516 1518 1521 1524 1528 1531 1533 1535 1537 1538 1540 1542 1543 1544 1545 1546 1546 1547 1547 1547 1547 1547 1547 1547 1547 1547 1547 1547 1546 1546 1545 1544 1544 1543 1542 1543 1543 1542
1501 1500 1502 1506 1508 1512 1516 1519 1522 1526 1528 1531 1533 1535 1537 1538 1540 1541 1541 1542 1543 1543 1544 1544 1545 1545 1545 1545 1545 1545 1545 1545 1545 1544 1543 1542 1542 1540 1540 1539 1539 1538 1538
1500 1498 1497 1501 1507 1511 1514 1517 1520 1524 1526 1529 1531 1532 1534 1535 1536 1537 1538 1539 1540 1540 1541 1542 1542 1542 1542 1542 1542 1542 1541 1542 1541 1542 1542 1540 1539 1538 1537 1536 1535 1535 1535
1502 1500 1498 1500 1505 1510 1513 1517 1519 1522 1525 1527 1528 1530 1531 1533 1533 1535 1536 1536 1537 1537 1537 1538 1538 1539 1539 1538 1538 1538 1538 1538 1538 1538 1538 1538 1538 1537 1536 1534 1534 1532 1531
1504 1503 1502 1503 1505 1509 1512 1515 1518 1521 1523 1526 1527 1528 1529 1530 1531 1532 1532 1532 1533 1533 1533 1533 1534 1534 1535 1535 1535 1534 1534 1534 1534 1533 1533 1533 1533 1533 1533 1530 1529 1528 1527
1505 1505 1506 1506 1507 1509 1512 1514 1517 1519 1521 1524 1526 1527 1527 1527 1527 1528 1528 1528 1529 1529 1529 1528 1528 1529 1529 1530 1530 1530 1530 1529 1529 1528 1527 1527 1527 1528 1527 1525 1524 1524 1524
1508 1507 1507 1508 1510 1511 1512 1513 1515 1516 1518 1521 1523 1524 1525 1525 1524 1523 1523 1523 1524 1523 1524 1525 1524 1524 1524 1525 1525 1525 1525 1525 1525 1525 1525 1524 1523 1521 1522 1522 1520 1519 1518
1514 1512 1511 1511 1512 1513 1514 1515 1515 1516 1517 1518 1520 1521 1522 1521 1520 1519 1518 1517 1517 1518 1520 1521 1521 1520 1519 1519 1519 1519 1520 1519 1519 1519 1520 1519 1520 1519 1517 1517 1517 1515 1514
1518 1516 1515 1515 1514 1514 1515 1515 1516 1517 1516 1516 1516 1517 1517 1517 1516 1514 1513 1511 1510 1511 1512 1514 1514 1514 1514 1513 1513 1513 1514 1514 1514 1515 1515 1515 1515 1514 1514 1512 1512 1512 1510
1522 1520 1519 1517 1517 1517 1517 1516 1516 1516 1516 1515 1515 1514 1513 1511 1510 1509 1507 1506 1505 1505 1505 1507 1507 1507 1507 1507 1507 1507 1508 1508 1508 1508 1508 1509 1509 1510 1509 1508 1507 1506 1506
1523 1522 1522 1521 1519 1518 1516 1516 1515 1514 1513 1512 1511 1509 1508 1506 1505 1502 1500 1499 1499 1498 1498 1498 1499 1499 1499 1499 1499 1499 1500 1501 1502 1502 1502 1502 1503 1503 1503 1502 1502 1501 1501
1523 1522 1522 1522 1521 1519 1517 1516 1515 1514 1512 1510 1508 1505 1503 1501 1499 1496 1494 1492 1491 1491 1491 1491 1491 1491 1491 1491 1491 1492 1492 1493 1493 1493 1493 1494 1496 1497 1497 1496 1495 1496 1496
1523 1522 1522 1520 1520 1519 1518 1516 1515 1513 1511 1509 1506 1503 1500 1498 1495 1492 1489 1487 1485 1484 1484 1484 1483 1484 1483 1483 1483 1484 1485 1488 1489 1490 1488 1488 1489 1490 1491 1491 1492 1492 1493
1523 1522 1522 1521 1520 1519 1518 1517 1514 1512 1509 1507 1504 1501 1498 1495 1491 1487 1485 1482 1480 1478 1477 1476 1475 1475 1475 1474 1474 1475 1476 1479 1482 1482 1483 1482 1482 1485 1485 1485 1485 1486 1486
1523 1524 1522 1522 1520 1518 1516 1514 1512 1510 1507 1504 1500 1498 1495 1492 1489 1484 1480 1477 1474 1472 1471 1469 1468 1467 1466 1465 1466 1465 1467 1471 1473 1476 1475 1475 1476 1478 1478 1479 1480 1481 1481
1521 1522 1521 1519 1517 1514 1511 1510 1508 1505 1502 1499 1496 1493 1490 1486 1483 1480 1476 1473 1469 1466 1464 1463 1462 1460 1459 1459 1459 1459 1461 1462 1465 1468 1469 1469 1472 1473 1472 1473 1474 1474 1474
1518 1518 1517 1516 1514 1511 1509 1507 1504 1501 1498 1495 1492 1488 1484 1480 1477 1474 1471 1468 1464 1461 1459 1456 1454 1453 1452 1451 1452 1453 1452 1454 1457 1461 1463 1465 1468 1468 1468 1468 1468 1468 1469
1516 1516 1515 1514 1512 1510 1508 1505 1502 1498 1495 1491 1489 1485 1480 1476 1472 1468 1465 1462 1459 1455 1452 1450 1447 1445 1444 1445 1446 1446 1447 1448 1449 1454 1457 1461 1462 1462 1461 1463 1462 1463 1463
1514 1514 1513 1511 1509 1508 1505 1502 1499 1496 1492 1488 1485 1482 1478 1473 1468 1463 1458 1456 1452 1448 1445 1441 1439 1438 1438 1439 1439 1440 1442 1443 1445 1447 1452 1455 1456 1457 1458 1455 1456 1459 1458
1512 1512 1511 1509 1507 1505 1502 1500 1496 1493 1489 1486 1482 1479 1474 1470 1465 1460 1455 1450 1446 1440 1436 1433 1430 1429 1429 1430 1433 1432 1434 1437 1441 1443 1447 1450 1451 1452 1453 1452 1453 1454 1455
1509 1508 1507 1504 1503 1501 1498 1496 1493 1490 1486 1483 1479 1475 1470 1464 1459 1454 1449 1443 1438 1434 1429 1426 1423 1422 1422 1422 1426 1426 1429 1432 1437 1440 1443 1446 1447 1448 1448 1449 1450 1451 1451
1505 1504 1502 1501 1500 1497 1495 1492 1490 1486 1482 1479 1474 1469 1463 1459 1453 1447 1442 1437 1432 1428 1423 1420 1416 1415 1414 1415 1420 1421 1425 1429 1433 1437 1440 1443 1443 1443 1445 1447 1448 1449 1448
1501 1500 1499 1498 1497 1494 1492 1488 1485 1481 1478 1474 1470 1464 1457 1451 1446 1442 1437 1430 1425 1421 1416 1414 1411 1409 1408 1410 1413 1416 1421 1426 1430 1433 1437 1438 1439 1440 1442 1444 1445 1446 1446
1498 1497 1496 1494 1492 1489 1488 1485 1481 1477 1473 1469 1465 1458 1451 1444 1440 1437 1432 1426 1420 1416 1410 1407 1402 1400 1400 1405 1408 1412 1419 1423 1426 1429 1432 1435 1436 1438 1441 1442 1443 1444 1446
1494 1493 1492 1490 1488 1486 1484 1481 1478 1474 1470 1464 1459 1453 1446 1440 1434 1431 1426 1421 1417 1412 1405 1401 1395 1393 1395 1400 1405 1410 1415 1419 1423 1427 1430 1432 1434 1435 1437 1440 1442 1443 1445
1489 1489 1488 1486 1485 1482 1480 1477 1474 1470 1466 1460 1454 1448 1441 1437 1431 1426 1419 1417 1412 1406 1400 1395 1392 1393 1394 1399 1404 1410 1413 1417 1421 1424 1427 1428 1430 1434 1436 1438 1441 1443 1445